GFSCGP_850_temp_129.txt.gz
Temp
15 13 13 14 13 14 14 14 13 13 14 15 13 13 12 13 12 11 11 10 9 9 9 9 11 14 14 16 17 17 16 15 14 14 13 12 13 13 13 13 14 14 13 13
13 12 14 14 15 15 14 14 13 13 14 14 13 12 12 12 12 11 10 10 9 9 9 9 10 13 13 16 16 16 16 15 15 15 14 14 13 13 12 13 13 13 13 13
13 15 15 16 15 15 14 13 14 13 14 14 13 11 12 12 12 12 10 9 9 9 8 9 10 13 13 15 16 16 15 15 15 15 15 14 14 13 12 12 12 12 13 13
14 16 16 16 15 14 14 14 15 15 13 12 13 11 11 10 10 9 9 9 10 8 8 8 11 13 14 15 15 15 15 16 15 15 14 14 14 13 12 12 12 11 12 12
15 15 16 15 15 14 14 15 14 14 13 12 12 10 10 9 10 8 9 9 8 7 8 9 12 13 14 14 15 15 15 15 14 14 13 14 14 13 13 11 10 11 12 11
14 16 15 15 15 15 14 14 11 10 10 11 12 11 10 9 8 8 10 9 7 7 8 9 12 13 14 14 14 14 13 12 12 13 12 12 13 13 13 12 11 11 9 11
15 15 16 16 15 14 12 10 7 11 8 9 11 9 10 10 8 8 8 8 7 8 8 9 12 12 12 12 13 12 12 12 12 13 13 12 12 12 13 11 12 10 11 12
12 14 14 15 15 14 13 11 6 8 7 7 10 9 11 9 8 9 9 8 8 8 8 9 10 10 10 10 11 11 11 11 11 12 12 11 11 11 11 11 10 10 11 10
12 14 15 15 15 14 13 11 10 7 7 6 8 11 11 8 9 8 8 7 8 8 8 10 10 10 10 11 10 10 10 10 10 10 10 11 11 10 10 9 9 9 9 10
13 14 14 14 15 13 13 11 11 7 9 10 9 10 10 10 9 7 8 7 7 9 9 10 10 10 10 10 10 11 11 10 10 10 10 10 10 10 9 10 10 10 10 9
12 12 14 14 13 12 12 11 10 9 8 10 10 10 9 10 8 7 8 7 7 8 9 9 9 10 10 10 10 10 10 9 9 9 9 9 9 9 9 9 9 9 9 8
12 10 11 13 13 13 12 12 10 9 11 8 8 10 11 8 8 8 8 7 7 8 8 9 9 9 9 9 10 10 10 10 10 9 9 9 9 8 9 8 8 8 8 8
11 10 11 12 12 13 13 12 10 8 8 8 8 10 8 7 7 8 8 7 7 8 8 9 9 9 9 9 9 9 9 9 9 9 9 10 8 9 9 8 8 8 8 7
13 9 11 12 13 11 12 12 10 10 8 9 8 11 8 7 6 7 8 8 8 8 9 9 9 9 9 9 9 9 8 8 9 9 8 8 8 8 8 8 8 7 6 6
10 11 9 10 11 12 13 13 10 10 10 11 11 9 11 9 7 8 9 8 8 7 8 8 9 9 9 9 9 9 8 8 8 9 9 9 9 8 8 8 8 7 6 5
8 11 9 12 12 10 11 11 11 10 11 10 11 10 10 11 9 8 9 8 8 8 8 8 8 8 8 8 8 9 8 8 8 8 9 9 9 8 7 7 7 6 5 5
8 8 9 12 11 12 12 11 11 11 10 12 11 13 8 7 8 8 9 9 9 10 10 9 10 10 9 8 9 9 8 8 8 8 8 8 8 7 7 6 6 5 4 4
6 8 8 9 12 13 14 13 12 12 12 10 12 11 10 11 12 11 12 11 10 10 10 10 10 9 9 9 8 8 8 8 8 8 8 7 6 6 6 5 5 4 4 4
7 7 7 9 9 11 15 12 11 12 14 11 12 11 11 11 10 10 11 12 13 12 12 11 11 10 9 9 8 8 8 7 7 7 7 6 6 6 5 4 4 4 3 3
7 7 9 6 10 12 14 13 14 13 12 12 12 10 8 10 9 9 13 12 12 12 12 11 11 10 10 9 8 8 8 7 7 7 6 6 5 5 4 4 4 3 3 3
7 7 7 7 8 10 11 13 14 14 14 13 13 12 9 10 14 16 15 13 12 12 12 11 11 10 10 9 9 8 8 8 7 6 6 6 5 4 4 4 4 3 3 3
8 7 6 6 9 12 12 12 13 14 15 16 14 15 14 15 15 16 16 14 13 12 11 11 10 10 10 9 9 9 9 8 7 6 6 6 5 5 4 3 3 3 2 2
9 7 8 10 10 12 13 14 17 17 18 17 17 17 17 15 15 15 15 15 14 13 12 11 10 10 10 9 9 9 9 7 7 6 6 6 5 5 4 3 3 3 2 1
7 7 8 10 11 9 13 15 16 17 18 19 19 19 18 17 16 15 15 15 14 13 12 12 10 10 9 9 9 9 8 7 7 6 6 5 5 4 4 3 2 2 2 2
7 8 7 8 10 11 13 15 17 17 17 18 18 18 18 17 17 16 15 15 15 14 13 12 12 11 10 9 9 8 7 7 7 6 5 5 5 4 4 3 3 2 2 1
6 6 10 9 14 15 16 19 17 17 18 18 18 18 18 18 17 17 16 15 15 15 13 12 12 11 11 10 9 8 7 7 6 6 5 5 5 4 3 3 2 2 1 0

GFSCGP_850_temp_132.txt.gz
Temp
14 12 12 13 12 14 14 13 12 12 13 14 13 11 12 12 12 11 9 10 9 9 10 9 9 11 14 15 16 16 15 15 14 14 13 14 13 12 13 13 13 13 13 13
12 12 13 13 13 14 13 13 12 12 13 14 12 12 11 12 11 10 10 9 9 9 9 9 9 11 13 14 15 16 16 15 14 14 14 14 13 12 12 12 12 13 13 12
12 15 14 14 15 14 14 12 13 13 13 13 11 11 11 12 11 10 10 9 10 8 8 8 10 11 13 15 15 15 15 15 14 14 13 13 13 13 12 12 12 12 13 12
12 14 15 14 14 13 14 13 14 14 12 11 12 10 10 11 9 9 8 10 8 8 8 8 11 11 13 15 14 14 15 14 14 14 14 13 13 12 13 12 12 12 12 12
14 14 14 14 14 13 13 14 13 13 12 11 11 10 9 9 10 7 8 10 7 8 8 9 12 12 13 14 14 15 14 14 14 14 14 14 13 12 13 12 11 11 12 11
13 15 14 14 14 14 13 13 10 9 9 10 11 10 9 10 10 8 9 9 7 8 9 10 12 13 14 14 14 14 14 14 13 12 12 12 13 13 13 13 13 12 11 12
14 14 15 15 14 13 12 10 7 10 8 9 10 9 9 10 8 7 8 8 8 9 9 10 11 11 12 11 11 11 11 12 12 12 11 11 11 11 12 13 11 11 11 11
11 13 13 14 15 12 12 11 6 8 7 6 9 9 11 10 8 8 8 7 8 9 9 9 9 9 10 10 10 11 11 11 12 11 11 11 11 11 11 11 11 11 11 11
10 13 14 14 14 13 11 11 10 6 6 6 7 10 11 8 8 8 8 7 7 8 9 9 10 9 9 9 9 10 11 11 11 11 11 10 10 10 10 10 9 9 9 9
12 13 14 13 14 12 12 10 10 6 9 11 9 9 10 11 10 9 8 8 7 7 8 9 9 10 10 9 10 10 10 10 11 11 10 9 10 9 9 9 9 9 9 9
11 11 13 13 12 11 11 10 8 8 8 10 10 10 8 10 10 9 8 7 7 7 8 9 10 10 9 10 9 9 9 9 9 11 11 9 9 9 9 9 9 9 9 9
11 9 10 12 12 11 11 10 9 9 10 7 8 9 9 9 8 9 8 7 7 7 8 9 9 9 9 9 9 9 9 9 9 8 9 9 9 9 9 9 10 9 9 8
10 10 10 11 12 12 12 10 9 7 7 7 8 10 7 7 7 8 8 8 7 7 8 8 9 9 9 9 8 8 8 8 8 8 9 9 8 9 10 10 8 8 8 8
13 8 11 12 13 9 11 10 9 10 8 8 8 11 9 7 6 7 8 8 8 8 8 8 9 9 9 8 8 8 8 8 8 9 9 8 8 8 9 8 8 7 7 7
11 11 9 10 12 11 12 11 9 10 10 11 11 9 10 9 7 8 10 9 8 8 8 8 8 9 10 9 9 9 8 8 8 8 9 9 9 9 8 8 8 7 6 6
8 10 10 13 10 10 11 11 9 9 10 9 11 9 10 11 10 9 10 9 8 8 7 8 8 8 8 8 9 9 8 9 8 9 9 8 8 8 7 7 7 7 6 5
8 7 8 12 11 10 11 10 10 10 9 11 11 12 8 8 7 9 10 10 10 9 9 8 8 7 7 7 8 8 8 8 8 8 8 8 7 7 7 6 6 5 5 4
6 8 7 8 10 12 13 11 11 11 12 9 11 10 9 11 14 13 13 13 12 11 10 10 9 9 8 8 8 8 8 8 8 8 7 7 7 7 7 6 5 5 5 4
7 7 6 9 8 11 14 10 10 11 13 11 12 10 11 11 10 11 12 14 14 13 12 11 10 10 9 9 9 8 8 8 8 8 7 7 7 6 6 5 5 4 4 4
7 6 9 5 10 11 13 13 12 13 13 11 12 8 7 9 9 8 15 14 13 13 12 11 10 10 9 9 9 9 8 8 8 8 7 7 7 6 6 5 5 4 4 3
7 7 7 7 8 9 11 12 13 15 15 13 12 10 8 9 12 17 17 15 14 13 12 11 11 10 10 9 9 9 8 8 8 7 7 7 7 6 6 5 5 4 3 3
7 6 7 6 9 12 11 11 13 14 14 16 13 14 14 14 15 17 17 15 14 13 12 11 11 10 10 9 9 9 9 8 7 7 7 6 6 6 5 4 4 3 3 2
10 8 8 9 9 12 13 14 16 17 17 16 17 16 16 16 15 16 17 15 14 14 13 12 11 11 10 10 10 10 9 8 7 7 6 6 6 5 4 4 3 3 3 2
6 6 8 10 11 9 13 15 17 16 17 18 19 19 17 17 16 16 16 15 14 14 13 12 11 11 11 10 10 10 9 8 8 7 7 6 6 5 5 4 3 3 3 2
7 7 6 8 9 11 12 15 17 17 17 17 18 18 18 18 17 16 16 15 15 14 13 13 12 12 11 11 10 10 9 8 8 7 7 6 6 5 5 4 4 3 2 2
5 7 11 10 12 15 17 20 17 17 17 18 18 18 18 18 18 16 16 16 15 15 14 13 13 12 12 11 10 10 9 8 8 7 7 7 6 6 5 4 4 3 3 2

GFSCGP_850_temp_135.txt.gz
Temp
14 14 14 15 13 14 14 13 13 13 14 14 14 13 14 12 11 10 10 10 9 10 9 9 9 10 11 12 14 16 16 15 14 14 14 13 13 12 11 12 12 12 13 13
13 13 14 13 13 13 13 13 13 13 13 14 13 14 13 12 11 10 9 10 10 9 8 9 9 10 11 13 14 16 16 14 13 13 13 13 13 11 11 12 12 12 13 13
13 15 13 14 13 14 13 13 12 14 13 13 13 14 12 11 10 10 10 10 9 8 8 8 9 10 11 13 13 14 14 14 13 13 13 12 11 12 11 11 12 12 12 12
13 13 14 13 14 14 13 13 13 14 13 14 12 15 12 12 11 10 9 9 9 8 9 9 10 11 11 13 14 14 13 13 13 13 12 12 12 12 12 12 12 12 12 12
15 14 14 14 14 13 14 13 13 13 13 12 12 13 14 11 11 10 10 9 9 8 9 10 11 12 13 14 15 14 14 14 14 14 13 13 13 11 12 12 12 12 12 12
13 14 14 15 13 13 12 12 11 10 11 13 12 13 14 13 11 9 10 9 9 8 8 10 10 12 13 14 14 14 14 14 13 12 13 13 12 11 12 12 12 13 11 11
13 13 14 14 13 13 12 12 12 13 12 14 10 11 14 11 9 9 9 8 9 8 9 9 10 10 11 12 12 13 13 13 12 12 11 11 12 11 12 13 13 13 11 11
12 14 13 13 14 13 12 12 11 13 13 12 9 11 14 10 9 8 8 8 9 8 9 9 9 10 10 10 10 11 12 12 12 12 11 11 11 11 11 11 12 12 11 10
11 13 13 13 13 13 11 12 11 8 7 10 11 12 11 8 9 8 8 8 9 8 8 8 9 9 10 10 10 10 11 11 11 11 11 11 10 10 11 11 11 10 10 10
13 13 13 12 13 11 12 11 12 10 12 13 12 11 14 11 10 9 9 9 8 8 8 9 9 9 9 9 9 10 9 10 10 10 11 11 10 10 10 10 10 9 9 9
11 12 12 12 12 12 11 12 10 11 11 14 14 15 12 12 11 10 8 8 8 8 8 9 9 9 9 9 9 9 9 9 9 9 9 10 10 10 9 9 9 10 9 9
11 10 11 12 12 11 11 11 11 13 11 9 11 14 11 11 10 9 8 7 9 8 8 8 9 9 9 9 9 9 9 8 9 9 9 9 9 9 9 10 10 9 9 8
11 11 11 12 12 11 11 10 10 9 9 10 13 15 9 8 8 8 7 8 9 9 9 9 8 9 9 9 9 8 8 8 8 8 9 8 8 8 8 8 9 9 9 8
13 9 12 14 14 10 11 10 10 12 12 11 11 13 11 10 9 7 7 7 8 9 9 9 9 8 8 8 8 8 8 8 8 8 8 8 8 8 7 7 7 8 8 7
12 12 10 11 12 11 11 10 9 12 11 14 13 11 14 12 10 9 8 7 8 8 8 8 9 9 8 9 8 8 8 8 8 8 8 8 7 7 7 7 7 6 6 6
8 11 10 12 10 10 12 11 10 11 10 11 11 11 11 11 11 8 8 7 8 9 9 9 8 9 10 9 9 9 8 8 8 9 9 9 9 8 8 8 8 7 5 5
9 8 10 12 10 9 11 11 10 10 10 13 12 15 9 9 9 10 9 9 8 8 8 9 9 9 9 8 8 8 8 8 8 9 9 8 8 8 8 7 6 5 5 5
7 9 9 9 10 12 14 11 12 13 12 10 11 11 11 13 14 14 14 13 10 9 8 8 8 8 7 7 7 8 8 8 8 8 8 7 7 7 7 6 5 5 5 5
7 8 7 10 9 11 13 11 10 11 14 11 13 11 11 11 11 12 13 14 15 12 11 11 10 8 8 7 8 8 8 8 8 8 8 7 7 7 6 5 5 5 5 4
7 7 11 6 11 12 14 13 11 12 15 12 12 12 9 10 12 14 16 15 14 13 12 11 10 9 9 8 8 8 8 8 8 8 7 7 6 6 5 5 5 4 4 4
7 8 10 9 10 11 11 11 12 15 17 13 12 11 9 12 15 16 17 16 15 14 12 11 10 10 10 9 9 8 8 8 8 7 7 6 6 5 5 5 4 4 4 4
9 8 8 7 10 13 11 11 14 15 15 15 12 12 11 13 16 17 17 17 15 14 12 11 10 10 10 9 9 9 9 8 8 7 7 6 6 6 5 5 4 4 4 3
10 11 9 11 11 12 12 14 15 16 16 15 16 15 15 14 16 17 17 16 15 14 13 12 11 11 10 10 10 10 9 8 8 7 7 7 6 6 6 5 5 4 4 3
7 6 9 11 12 10 14 15 17 17 17 17 17 17 16 16 17 17 17 16 15 14 13 12 11 11 10 10 10 10 9 8 8 8 7 7 6 6 6 5 5 4 4 3
8 7 7 9 10 11 12 15 17 17 17 17 18 18 18 17 17 17 17 17 16 15 14 13 12 12 11 11 11 10 9 8 8 8 7 7 6 6 6 5 5 4 3 3
5 7 12 14 11 15 16 19 18 17 18 18 19 18 17 18 18 17 17 16 16 15 14 13 13 12 12 11 11 11 9 8 8 8 7 7 6 6 5 5 5 4 4 3

GFSCGP_850_temp_138.txt.gz
Temp
17 18 19 20 20 20 19 19 19 20 19 17 19 19 19 18 16 16 15 15 14 13 12 12 11 10 10 9 11 13 14 13 11 12 11 13 11 12 12 12 12 13 13 12
17 18 20 19 18 18 18 19 19 19 18 17 19 18 20 17 16 15 14 14 13 12 11 10 10 10 10 10 10 11 11 11 12 12 11 13 11 12 12 12 12 12 12 12
19 20 17 17 17 17 18 18 19 18 18 18 17 19 17 16 14 13 14 13 12 10 9 9 10 10 10 10 11 12 12 12 12 12 12 12 12 11 11 11 11 12 12 12
18 20 17 17 18 18 18 18 18 17 17 19 17 20 18 17 16 15 14 13 12 9 9 9 9 10 11 11 11 12 12 14 13 12 11 12 11 11 11 12 11 11 11 12
19 17 16 17 18 18 19 16 17 17 17 17 18 17 20 16 17 16 14 13 11 9 9 9 9 10 11 13 13 12 14 15 13 13 12 12 11 11 11 11 10 11 11 11
19 16 17 19 16 18 16 16 16 16 17 17 19 17 21 18 17 15 14 13 10 9 9 9 10 10 11 13 14 14 14 14 14 13 12 12 12 11 11 10 10 11 11 11
18 17 17 16 16 16 16 17 17 17 16 19 15 15 19 18 15 14 13 12 10 8 8 9 9 10 10 11 13 13 13 14 14 13 13 12 12 11 11 11 11 11 12 11
18 17 17 17 19 18 17 18 16 16 17 17 13 15 18 16 14 12 11 11 10 9 9 8 9 9 9 10 11 11 11 11 11 12 11 11 11 11 11 10 11 11 11 11
18 18 16 16 17 19 16 16 17 15 13 15 17 17 14 13 14 12 12 11 10 9 9 9 8 9 9 10 11 11 11 11 10 10 11 11 11 11 11 11 11 11 11 10
19 18 16 14 16 14 17 17 16 16 14 17 19 18 21 14 15 14 13 12 11 9 9 9 9 9 9 9 9 9 9 10 10 10 10 10 10 10 10 10 10 11 10 10
19 18 15 15 16 17 15 16 16 17 17 19 20 21 19 18 17 15 14 12 11 10 8 9 9 9 9 9 9 9 9 9 9 9 10 10 9 10 10 10 10 9 10 10
18 19 17 16 15 16 19 18 18 18 17 17 17 20 17 18 17 15 13 11 11 10 8 9 9 9 9 8 8 8 9 9 9 9 10 10 9 9 9 9 9 9 9 9
16 18 17 15 15 14 15 16 18 18 17 18 19 21 16 16 15 14 13 11 11 9 9 9 9 9 9 9 8 8 8 9 9 9 9 9 9 9 9 9 8 7 8 8
16 18 19 20 20 19 15 16 16 17 18 19 19 20 15 15 14 13 12 11 11 10 8 8 9 9 8 8 8 8 8 8 8 8 9 9 9 8 8 9 8 8 8 7
16 17 18 18 17 16 17 16 15 16 19 19 21 19 20 17 16 14 12 11 11 10 8 8 8 8 8 8 8 8 8 8 8 8 8 8 8 8 8 8 7 7 7 7
14 17 16 17 15 16 16 16 16 17 18 18 18 17 20 20 16 14 12 11 10 10 9 8 8 7 7 7 8 8 8 7 8 8 8 8 7 7 6 6 6 6 6 6
14 15 15 17 15 15 15 16 16 16 17 18 17 19 18 16 16 15 13 11 11 11 10 9 9 9 9 8 8 8 8 8 8 8 8 7 6 6 6 6 6 5 6 6
13 14 15 17 14 15 19 17 18 17 18 17 18 18 17 18 16 15 14 12 11 11 10 10 9 10 10 9 9 8 8 8 8 8 8 7 7 7 7 6 6 6 6 5
11 14 15 15 15 18 16 14 15 16 18 18 17 18 17 15 15 14 14 13 13 11 11 10 9 9 9 9 8 9 9 8 8 8 8 8 7 7 7 7 6 6 5 5
10 12 15 13 15 15 20 18 16 17 19 21 18 18 17 14 17 20 14 13 12 11 11 10 9 8 8 7 7 8 9 9 8 9 8 8 8 7 7 6 6 5 4 4
9 11 13 15 16 17 17 15 16 18 21 19 18 18 16 16 20 19 15 13 12 11 10 10 9 8 8 8 8 8 9 9 8 8 8 7 7 6 6 6 5 5 4 4
12 12 13 15 15 15 13 13 18 22 16 15 15 16 14 16 16 17 13 12 12 11 10 10 8 8 8 9 9 8 9 8 8 8 7 7 6 6 6 5 5 4 4 4
11 15 15 16 16 15 13 17 16 16 17 15 14 13 14 14 15 17 13 11 13 13 12 11 11 8 9 10 9 9 9 8 8 8 7 7 6 6 5 5 4 4 4 4
12 12 14 14 16 14 12 14 16 16 16 17 17 15 13 14 16 16 14 13 11 12 13 12 10 10 10 10 9 9 9 9 8 8 7 7 6 6 5 5 4 4 4 4
15 13 15 15 15 13 13 14 17 17 17 17 17 16 16 16 17 17 16 15 14 14 12 12 12 11 11 11 10 9 9 9 8 8 7 7 6 6 6 5 5 4 4 4
15 14 15 16 18 17 19 17 18 17 18 18 18 17 16 17 17 17 17 17 16 15 14 13 12 11 11 11 10 9 9 9 8 7 7 7 7 6 5 5 5 4 3 3

GFSCGP_850_temp_144.txt.gz
Temp
18 17 17 19 20 20 21 20 20 21 22 21 19 19 20 21 22 21 20 19 19 17 16 14 13 12 12 12 13 13 12 12 13 13 13 13 13 12 12 13 13 13 13 12
18 17 20 21 21 21 21 20 19 20 22 21 19 19 20 20 21 21 20 18 17 16 13 11 10 10 11 12 13 12 11 11 12 12 13 12 12 12 13 13 13 13 12 12
18 20 22 21 20 20 19 19 19 20 21 20 19 18 19 21 21 18 17 17 16 13 11 11 10 9 10 11 11 11 11 11 12 12 12 12 13 12 13 13 12 13 12 12
19 21 21 20 20 21 18 20 20 20 18 16 20 16 18 19 17 16 17 17 14 11 11 10 10 10 10 11 11 11 11 12 12 12 12 12 12 12 13 11 12 12 12 12
19 20 20 19 20 20 19 20 19 19 17 17 17 16 19 20 16 16 17 16 14 11 10 10 10 10 10 10 11 11 11 12 12 12 12 13 12 12 12 12 11 11 11 11
20 21 20 20 21 20 20 19 18 18 16 14 17 17 18 18 18 17 17 16 13 11 10 10 10 10 10 10 10 10 11 11 12 12 12 12 12 13 12 11 11 11 11 10
19 20 20 20 19 19 18 17 13 14 13 14 18 18 17 18 19 17 16 15 13 11 10 9 10 10 9 10 10 10 10 11 12 11 11 11 12 12 12 10 10 11 11 10
16 17 19 19 18 17 17 17 13 13 14 13 17 14 18 18 17 18 17 14 12 10 9 9 9 9 9 9 9 10 10 10 10 11 11 11 10 10 10 10 9 10 10 10
18 18 21 20 19 19 17 15 18 16 17 14 14 18 17 16 15 15 15 13 12 10 10 9 9 8 9 10 9 10 10 10 10 10 10 11 11 10 10 9 10 9 9 9
19 17 20 18 19 18 18 19 15 15 13 14 17 18 17 15 15 14 14 13 12 11 10 9 9 9 9 9 8 9 9 10 10 10 10 10 10 10 10 9 9 9 9 10
18 17 18 16 16 17 17 16 17 17 16 16 17 19 19 16 16 15 14 14 12 10 10 8 9 8 9 9 9 8 9 9 9 10 10 10 10 10 10 9 9 9 9 10
19 17 16 15 18 18 17 17 18 15 16 16 17 16 21 17 17 16 16 15 13 11 9 8 8 8 8 8 8 8 9 9 9 9 9 9 10 9 9 9 9 9 9 9
17 16 14 16 16 17 16 18 18 18 17 16 15 17 20 17 17 18 16 15 14 11 8 8 8 8 8 8 8 9 8 9 9 9 9 8 9 9 9 9 9 9 9 9
13 15 15 14 17 16 16 17 18 18 16 17 17 18 18 17 16 16 16 15 14 11 8 8 7 8 7 7 8 8 9 9 9 8 8 9 9 9 8 8 8 8 8 9
11 14 14 15 17 18 17 17 17 17 18 17 18 18 18 17 16 16 16 15 13 11 9 8 8 8 8 7 8 9 8 8 8 8 8 8 8 8 8 8 8 7 7 7
10 12 14 14 16 17 17 19 17 17 18 18 19 19 20 19 19 17 16 15 13 12 10 8 8 8 8 8 8 8 9 8 8 8 8 8 7 7 7 8 8 7 7 7
8 10 12 12 15 16 16 18 18 18 18 18 17 19 19 17 17 17 16 15 14 13 10 8 8 9 8 9 8 8 7 7 7 8 8 8 7 7 7 7 6 6 6 6
5 5 8 11 14 13 16 19 18 18 19 19 19 19 18 19 19 19 17 16 15 13 11 9 9 9 9 8 8 8 7 7 7 7 6 6 6 6 6 5 5 5 5 5
5 5 6 9 11 13 15 16 17 18 18 19 18 19 19 21 20 18 18 16 15 14 12 11 10 9 9 9 8 7 7 7 7 6 6 6 8 7 7 6 5 5 5 5
6 5 6 7 10 10 15 17 19 19 16 18 19 18 18 18 14 14 18 17 15 14 12 11 10 10 9 9 9 8 7 8 8 7 7 8 8 8 6 6 5 5 5 5
6 5 5 6 8 11 15 17 19 16 16 19 20 20 19 17 18 19 19 17 16 14 13 11 10 10 10 9 8 8 8 8 8 8 8 8 7 7 8 7 6 6 5 5
7 6 6 7 7 8 15 17 17 18 21 19 20 20 20 19 19 19 18 16 15 14 13 12 10 10 9 8 9 9 8 8 8 8 8 8 7 8 8 7 7 6 5 5
6 8 8 9 10 13 15 16 19 17 17 18 19 20 20 19 19 19 17 16 15 14 13 12 11 10 9 9 9 9 9 8 8 8 8 8 8 8 7 7 6 6 5 5
11 10 8 10 12 13 14 15 16 16 16 17 18 19 20 19 18 18 17 15 15 13 12 11 11 10 9 8 9 9 9 8 9 9 9 8 8 8 8 7 7 7 6 6
7 10 10 11 13 14 14 16 16 16 16 17 17 17 19 18 17 17 16 15 14 13 12 11 11 10 10 9 9 9 9 9 9 9 9 8 8 8 7 7 7 7 6 6
7 8 9 11 13 14 14 16 17 16 17 16 16 16 17 17 16 16 15 14 13 12 12 11 11 10 10 10 10 9 9 10 10 9 8 8 8 8 7 7 6 5 5 6

GFSCGP_850_temp_147.txt.gz
Temp
17 13 12 13 14 15 16 16 16 17 19 18 16 16 16 18 20 18 18 19 16 16 15 15 16 16 16 14 12 13 13 13 13 13 13 13 13 13 13 13 13 13 14 14
15 13 15 16 17 17 16 16 16 17 19 19 17 16 16 16 18 19 18 16 15 14 15 16 15 13 12 12 12 12 12 12 12 12 13 13 13 13 13 13 13 13 14 14
14 15 17 17 17 17 17 17 16 16 18 17 17 15 16 17 16 17 16 15 15 15 15 13 11 10 10 11 11 11 12 11 11 12 13 12 12 12 13 13 13 13 13 12
15 17 17 17 17 17 16 18 18 18 16 14 16 12 15 17 14 14 14 14 13 13 12 11 10 10 10 11 11 11 11 11 11 12 13 13 13 13 12 13 14 13 12 12
15 17 17 17 18 18 17 19 18 18 16 14 15 13 12 14 13 12 12 12 12 12 11 10 10 10 10 10 11 11 12 11 11 12 12 13 13 12 12 13 13 11 11 13
16 19 19 17 19 18 18 17 17 16 13 11 13 13 12 14 14 13 12 11 12 11 10 10 10 11 10 10 10 11 11 11 11 11 12 12 12 12 12 13 11 10 11 12
16 17 17 20 18 18 16 13 9 12 9 10 15 13 14 16 14 15 12 11 11 11 10 10 10 10 10 10 10 11 11 11 11 11 11 11 11 12 11 11 10 10 10 10
14 14 17 17 17 15 14 13 9 11 10 11 14 13 15 16 14 14 12 12 11 10 10 10 10 9 10 9 9 10 11 11 11 11 11 11 12 11 10 9 10 10 10 10
14 14 17 18 17 17 14 14 14 13 12 10 11 14 16 13 13 12 11 11 10 10 9 9 9 9 9 9 9 9 10 10 10 10 11 11 11 11 10 10 9 9 9 10
16 15 17 17 17 16 15 15 13 11 12 13 12 14 14 12 12 12 11 10 10 10 9 9 9 9 9 9 8 9 9 9 10 11 10 10 11 10 9 9 9 9 9 10
16 15 15 16 15 15 15 15 15 13 11 12 13 14 15 14 13 12 11 10 10 10 10 9 9 8 9 9 9 8 8 9 10 10 10 10 9 10 10 10 9 9 9 9
11 14 15 14 15 16 17 16 15 11 13 12 12 14 16 14 13 13 12 11 11 10 9 9 8 8 9 9 8 8 8 9 9 10 10 9 9 9 9 10 9 9 9 9
10 10 14 14 14 14 14 14 16 15 13 13 12 14 14 12 12 13 12 12 11 10 9 8 8 8 8 8 8 8 8 8 8 8 9 9 9 9 9 9 9 9 9 9
8 9 10 14 15 14 14 15 15 16 15 15 14 16 16 14 12 12 12 12 11 10 9 7 7 7 8 8 8 9 8 8 8 8 9 9 9 9 8 8 8 8 9 9
7 6 8 10 15 15 16 15 16 15 15 14 16 16 16 14 13 13 13 11 10 9 9 7 7 7 7 7 8 8 9 9 8 8 9 8 8 8 8 8 8 8 7 8
7 6 7 8 12 13 14 15 15 16 16 16 16 15 18 17 14 13 12 11 9 9 9 7 7 7 7 7 8 8 8 9 9 9 8 8 8 7 7 7 7 7 6 6
5 5 6 8 10 12 12 14 15 15 16 16 15 17 18 14 15 13 13 12 10 10 10 7 7 7 7 7 8 8 8 9 8 9 9 8 8 8 8 8 7 8 7 7
4 5 5 7 7 9 12 15 16 16 16 16 17 17 17 16 17 16 15 13 12 11 11 9 7 7 7 7 7 8 8 8 8 8 8 8 7 7 6 6 5 5 6 6
4 4 5 6 8 9 12 14 15 15 16 16 16 17 17 18 17 15 15 16 15 14 13 12 10 9 8 8 7 7 7 8 8 8 7 6 6 6 6 6 6 6 6 5
5 4 4 6 6 8 12 14 16 16 13 17 17 17 17 16 13 13 16 16 15 14 13 12 10 9 9 8 7 7 7 7 7 6 6 6 7 7 7 6 6 6 6 7
4 4 4 5 5 6 10 12 15 13 15 17 18 18 17 16 19 19 17 16 16 15 13 13 11 10 10 9 7 7 7 7 7 7 7 7 7 7 7 7 6 6 6 6
5 5 4 5 5 5 11 11 12 14 19 19 18 18 17 18 19 19 19 16 15 14 13 12 10 10 10 9 8 7 8 8 8 7 7 7 7 7 7 7 6 6 6 6
4 5 5 5 7 10 12 13 13 14 15 16 17 17 17 17 19 19 18 15 15 15 13 12 11 10 10 9 9 9 8 8 8 7 8 8 7 7 7 7 7 6 6 6
5 7 6 5 6 9 10 12 12 13 13 15 16 17 18 17 18 19 17 15 14 14 13 12 11 10 9 9 10 10 9 9 9 9 8 8 8 8 7 7 7 7 7 7
5 4 5 5 7 9 10 11 12 13 15 15 17 17 17 16 17 19 16 15 14 13 12 12 11 11 10 9 9 9 9 9 9 9 8 9 8 8 8 7 8 7 7 6
5 5 4 6 8 9 10 12 13 13 15 16 16 17 17 16 17 18 16 15 14 12 12 11 11 11 10 10 9 9 9 10 9 9 9 9 9 8 8 8 7 5 5 5

GFSCGP_850_temp_153.txt.gz
Temp
15 13 12 12 12 13 14 14 13 13 15 15 14 14 14 17 16 16 17 18 18 16 16 16 16 15 15 15 16 16 16 15 14 13 13 13 13 14 14 13 13 13 13 12
13 12 14 13 13 13 13 13 12 13 15 14 14 14 14 14 15 17 17 18 17 15 15 15 14 14 15 15 15 15 14 13 13 12 12 13 13 13 13 13 13 13 13 11
13 14 15 14 13 13 12 12 12 13 15 15 13 13 13 14 15 16 17 17 16 16 15 13 13 14 15 14 13 12 12 12 12 12 12 12 12 13 13 13 13 13 13 13
13 15 15 13 13 13 12 13 14 14 14 13 14 12 13 14 13 12 11 12 13 14 13 13 13 13 13 12 12 11 11 11 11 11 11 12 12 13 13 13 13 13 12 13
13 14 14 14 15 14 14 15 14 14 14 13 13 13 12 12 13 11 8 9 11 12 13 13 12 12 13 12 11 11 11 11 11 11 11 11 12 12 13 13 13 12 12 12
14 16 15 15 15 15 15 14 12 10 11 11 12 12 12 12 13 11 9 9 11 12 12 12 12 12 12 11 11 10 11 11 11 11 11 12 12 12 12 13 13 13 12 12
14 14 16 17 16 15 15 13 9 12 9 10 12 11 13 13 13 12 10 10 11 11 11 12 12 11 10 11 10 10 11 11 11 11 12 12 12 12 12 13 13 13 12 13
13 12 14 15 15 15 13 13 9 11 8 9 11 10 14 14 12 12 13 11 10 10 11 11 11 10 10 10 10 10 11 11 11 11 11 12 12 12 12 12 13 13 12 11
12 12 15 15 16 16 13 11 14 10 9 8 10 12 14 11 9 9 9 10 10 10 10 10 10 10 10 9 9 9 10 10 11 11 11 12 12 12 12 12 11 10 10 10
13 13 14 15 16 14 14 13 13 9 11 12 11 12 15 14 11 8 8 8 9 10 10 10 10 9 9 9 8 8 9 10 10 10 11 11 11 11 12 11 11 10 10 10
7 11 13 15 14 13 13 12 12 12 9 11 11 13 13 14 11 9 8 9 10 10 10 10 9 9 9 8 8 8 9 9 9 10 10 11 10 11 11 10 10 8 8 9
7 6 9 13 14 15 15 15 14 13 11 9 9 11 14 12 12 10 9 9 10 10 10 10 9 9 8 8 8 9 8 8 9 9 10 10 10 9 9 9 10 8 8 9
8 7 7 12 13 11 12 13 13 11 10 9 11 13 13 11 10 10 9 9 10 10 10 9 9 9 8 8 8 8 8 8 8 9 9 9 9 9 9 9 9 8 8 8
8 6 7 8 8 7 7 8 9 10 12 13 12 13 16 13 11 9 9 10 10 10 10 9 9 9 8 8 8 8 8 9 8 9 9 9 9 8 9 9 9 9 9 9
6 6 6 7 7 6 6 7 8 8 10 13 14 13 15 15 12 10 11 10 9 9 10 9 9 9 8 8 8 8 9 9 8 8 8 8 8 8 8 9 9 9 9 8
4 4 6 6 7 7 5 6 7 8 9 10 14 13 15 16 14 11 11 10 9 9 10 10 9 9 8 8 8 8 9 8 8 9 8 8 8 8 8 8 8 8 8 8
4 4 3 1 7 8 6 8 7 9 10 11 12 15 14 14 13 13 12 11 10 10 10 10 9 9 8 8 8 8 8 8 8 8 8 8 8 8 8 8 7 7 7 8
2 2 2 1 5 3 8 10 10 9 10 11 11 14 13 14 17 18 16 16 13 12 11 11 10 9 8 8 8 8 9 8 8 8 8 8 8 8 8 8 7 7 7 7
3 2 -1 -0 1 4 6 8 9 10 10 10 11 12 14 16 15 15 17 17 16 17 15 13 12 10 9 8 8 8 8 8 7 8 8 8 8 8 7 6 5 6 6 6
1 1 1 -3 -1 3 7 7 10 10 9 11 12 12 12 13 11 14 19 18 16 14 14 13 12 10 9 8 7 8 8 8 8 8 8 8 7 6 6 6 6 6 6 6
1 2 2 1 1 2 5 7 9 8 8 8 9 10 12 11 12 13 16 16 17 16 13 12 12 11 10 7 7 8 8 8 8 8 8 7 6 5 6 6 6 6 6 6
1 1 1 3 2 3 7 6 7 6 7 7 7 8 10 11 11 13 13 14 15 15 12 12 12 11 10 8 7 8 8 8 8 8 7 6 6 6 6 6 6 6 6 6
3 1 -0 1 2 5 6 6 8 7 7 7 7 8 9 10 11 12 13 13 13 14 13 12 12 11 11 9 8 8 7 7 7 7 6 6 6 6 6 6 7 7 7 7
2 3 2 3 4 5 7 7 7 8 7 8 8 8 9 9 11 12 13 12 12 11 11 12 11 12 11 9 8 8 7 6 6 6 6 6 7 6 6 6 6 7 7 7
1 2 2 2 3 4 6 6 7 6 7 8 8 8 10 10 11 13 13 12 12 11 10 11 12 12 12 11 9 10 8 7 6 6 7 7 7 7 6 6 6 7 7 7
1 3 1 3 5 4 5 6 6 6 6 7 7 8 9 10 10 14 13 13 11 11 10 10 11 12 11 11 10 10 9 8 8 7 7 8 8 7 7 6 6 5 5 5

GFSCGP_850_temp_156.txt.gz
Temp
14 12 12 12 11 13 13 12 13 13 14 14 13 13 13 15 15 15 17 18 17 19 18 16 16 16 16 16 16 16 15 15 15 15 14 14 13 13 13 13 13 12 13 12
12 11 13 13 12 12 12 12 11 12 13 13 13 14 13 14 15 17 17 18 19 18 17 16 15 15 14 15 15 15 15 15 14 14 13 13 13 13 13 13 12 13 13 12
12 13 14 13 12 12 12 11 11 12 13 13 12 12 13 14 14 15 16 16 17 17 17 15 14 13 14 14 15 14 14 13 13 12 12 12 12 12 12 12 12 12 12 12
12 14 14 13 13 13 12 13 13 13 13 11 13 12 13 13 11 12 12 13 14 16 14 13 12 13 14 14 13 13 13 12 12 11 12 11 12 12 12 12 12 12 12 12
12 13 14 14 14 12 12 13 13 13 12 12 13 12 13 11 13 12 10 11 12 12 12 12 12 13 13 12 11 12 11 12 11 11 11 11 11 11 12 12 12 12 12 12
13 15 14 15 15 14 14 14 11 10 10 10 12 12 12 13 15 12 9 10 10 10 11 12 12 12 11 11 11 11 11 11 11 11 11 11 11 11 12 12 12 13 13 12
14 14 15 15 15 14 14 13 10 11 9 10 11 10 13 14 13 12 12 10 10 10 11 11 11 11 10 10 10 11 11 11 11 11 11 11 12 12 12 12 12 13 13 13
12 11 14 15 16 14 13 13 10 11 9 9 10 10 14 14 12 12 13 12 10 10 10 11 10 10 10 10 10 10 11 11 11 11 11 11 11 11 12 12 13 13 13 13
11 11 14 15 16 16 12 12 13 10 9 9 10 12 14 12 10 9 9 10 10 10 10 10 10 10 10 10 9 10 10 10 11 11 11 10 11 11 11 12 12 12 12 12
11 11 13 15 15 14 14 13 13 9 11 11 11 12 14 15 14 9 8 8 9 10 10 10 10 10 9 9 8 9 9 10 10 10 11 11 11 11 11 11 11 11 11 11
7 8 12 13 13 12 12 12 12 13 10 11 11 12 13 15 13 11 8 9 9 10 10 10 10 9 9 9 8 8 8 9 9 10 10 10 10 10 10 11 11 11 10 9
7 6 7 12 13 14 14 13 14 12 10 8 10 12 14 12 11 11 9 9 9 11 10 10 9 9 9 8 8 8 8 8 9 9 10 10 10 11 11 10 10 9 9 9
8 6 7 10 11 10 10 8 8 8 9 10 10 12 13 11 10 10 9 9 9 10 10 9 9 9 8 8 8 8 8 8 8 9 9 9 9 9 9 9 9 8 8 9
8 7 6 7 7 5 7 7 7 8 7 10 11 13 14 14 12 9 10 10 10 10 10 10 9 9 9 8 8 8 8 8 9 9 10 9 8 9 9 9 9 8 8 8
6 5 6 7 7 5 4 5 6 6 6 6 8 8 13 14 14 11 15 11 10 10 10 9 9 9 8 8 8 8 8 9 9 9 9 9 9 9 9 9 9 9 9 8
3 4 5 5 7 7 6 5 6 7 7 6 7 8 12 14 13 13 14 11 10 11 11 10 10 9 8 8 8 8 8 8 9 9 8 8 8 8 8 9 8 8 8 8
1 3 2 1 4 5 5 7 6 8 8 8 8 10 12 12 12 14 14 13 15 14 13 11 10 10 9 8 8 8 9 9 8 8 8 8 8 8 8 8 7 8 8 7
1 1 2 -0 3 1 5 6 8 9 9 8 10 10 10 12 14 16 17 16 17 16 14 13 11 10 9 9 8 8 8 9 8 8 8 8 8 8 8 7 7 6 7 7
1 2 1 -0 1 2 5 8 8 8 8 9 9 11 11 11 12 14 15 14 15 16 16 15 13 11 10 9 8 8 8 9 8 8 8 8 8 8 7 6 6 6 6 6
1 3 3 -2 -1 2 4 6 7 7 6 7 8 8 8 9 10 10 12 13 14 15 14 13 11 11 10 9 8 8 8 9 8 8 8 8 8 7 6 5 5 6 5 5
2 1 0 -1 -2 1 3 5 7 5 5 6 7 7 7 7 9 10 11 12 13 15 14 13 11 11 11 10 8 8 8 9 9 8 8 8 7 6 5 5 5 6 5 6
2 1 2 2 2 2 5 5 5 5 6 6 7 7 7 7 8 9 10 11 12 12 13 12 11 10 10 9 8 7 8 9 9 8 8 7 6 5 5 6 6 5 6 6
2 0 -1 0 1 4 6 7 7 6 7 7 6 7 6 7 8 9 10 11 12 12 11 11 10 10 10 9 8 7 8 8 8 8 8 7 5 6 6 6 6 6 5 6
2 1 2 2 3 3 6 6 7 7 7 6 6 6 7 7 8 8 9 10 11 13 11 10 9 9 10 10 8 9 8 8 8 7 7 6 5 6 6 6 6 6 6 6
1 1 1 1 2 4 6 6 7 6 7 7 6 6 6 7 7 8 8 9 10 13 11 9 9 9 11 10 9 8 8 7 7 7 6 6 5 6 6 6 6 6 6 6
0 0 1 1 3 5 5 6 6 5 6 6 6 6 7 7 7 8 9 10 11 12 11 9 8 9 10 10 9 9 8 7 6 6 6 6 6 6 7 7 6 5 5 5